Погода в Проносном

Россия / Пермский край     57°29′05″N   57°34′32″E
темп.,
°C
ветер,
м/с
пор.,
м/с
влажн.,
%
обл.,
%
осадки,
мм/ч
давл.,
гПа
погр.,
м
22 апреля, чт
чт2223:00+6ююв31057100 0.0 1030172
02:00+5юв386199 0.0 1029117
05:00+4юв3365100 0.0 103050
08:00+6ю51259100 0.0 1030617
11:00+8ю81254100 0.0 10301036
14:00+8ююз71166100 0.1 10301402
17:00+6ююз51084100 0.2 10311000
20:00+6ю4986100 0.5 1030883
23 апреля, пт
пт2323:00+6ю4883100 0.8 1030784
02:00+3ю51197100 2.8 1030689
05:00+2ю4999100 5.1 1030365
08:00+2ю4799100 0.8 1030432
11:00+3ю3699100 1.1 1030433
14:00+3ю2598100 0.1 1031442
17:00+4ююв2496100 0.1 1031374
20:00+4вюв129390 0.0 103038
24 апреля, сб
сб2423:00+3всв2294100 0.0 102929
02:00+2всв3494100 0.0 102769
05:00+3всв3891100 0.0 1025215
08:00+4в3889100 0.0 1024303
11:00+8вюв4781100 0.1 1022532
14:00+6вюв4892100 0.8 1021404
17:00+7в4891100 1.3 1019351
20:00+6вюв5992100 1.3 1018438
25 апреля, вс
вс2523:00+5в51190100 1.3 1016405
02:00+5вюв51188100 0.0 1015391
05:00+4вюв51086100 0.0 1014456
08:00+3юв51097100 0.3 1013620
11:00+4юв51196100 1.2 1012525
14:00+8ююв6981100 0.0 10101013
17:00+7ю5992100 2.6 10101012
20:00+6юз510795 1.6 1012363
26 апреля, пн
пн2623:00+3ююз37895 2.1 1013130
02:00+2ююз311884 0.0 1014243
05:00+1ю348988 0.0 101560
08:00+4ю41083100 0.0 1015467
11:00+4юз5895100 0.4 1015701
14:00+6юз5776100 0.1 1015924
17:00+10юз684836 0.8 10131860
20:00+7ююз37635 0.3 1012133